Location: Gleizolles
(44.4833°N, 6.7667°E)
Time: 00:30:00
(UTC+00:00)

S-56A Canister/Altair - Pass Details

Date: 26 June 2024
Orbit: 638 x 2488 km, 38.9° (Epoch: 24 July)

Event Time Altitude Azimuth Distance (km) Brightness Sun altitude
Rises 01:50:26 0° 281° (W) 5,338 11.6 -15.5°
Reaches altitude 10° 01:54:16 10° 271° (W) 4,574 11.2 -15.2°
Maximum altitude 02:04:47 29° 218° (SW) 3,658 10.4 -14.1°
Drops below altitude 10° 02:16:35 10° 166° (SSE) 5,129 11.4 -12.9°
Sets 02:21:17 0° 157° (SSE) 6,069 11.8 -12.4°
